Station CHYV2 - 8638999 - Cape Henry, VA Image indicating link to RSS feed of recent meteorological observations for station CHYV2


Conditions at CHYV2 as of
(5:30 pm EDT)
2130 GMT on 05/22/2024:
     

Click on the graph icon in the table below to see a time series plot of the last five days of that observation.

5-day plot - Wind Direction Wind Direction (WDIR):SSE ( 150 deg true )
5-day plot - Wind Speed Wind Speed (WSPD): 15.0 kts
5-day plot - Wind Gust Wind Gust (GST): 21.0 kts
5-day plot - Atmospheric Pressure Atmospheric Pressure (PRES):29.96 in
5-day plot - Air Temperature Air Temperature (ATMP): 74.5 °F
5-day plot - Wind Speed at 10 Meters Wind Speed at 10 meters (WSPD10M): 13.6 kts
5-day plot - Wind Speed at 20 Meters Wind Speed at 20 meters (WSPD20M): 13.6 kts
5-day plot -  Wind Speed, Wind Gust and Atmospheric Pressure Combined plot of Wind Speed, Gust, and Air Pressure
NOS Water Level Observation Network Water Level
Previous observations
TIME
(EDT)
5-day plot - Wind Direction
WDIR
 
5-day plot - Wind Speed
WSPD
kts
5-day plot - Wind Gust
GST
kts
5-day plot - Wave Height
WVHT
ft
5-day plot - Dominant Wave Period
DPD
sec
5-day plot - Average Wave Period
APD
sec
5-day plot - Mean Wave Direction
MWD
 
5-day plot - Atmospheric Pressure
PRES
in
5-day plot - Pressure Tendency
PTDY
in
5-day plot - Air Temperature
ATMP
°F
5-day plot - Water Temperature
WTMP
°F
5-day plot - Dew Point
DEWP
°F
5-day plot - Salinity
SAL
psu
5-day plot - Visibility
VIS
nmi
5-day plot - Tide (above MLLW)
TIDE
ft
2024-05-22 05:24 pmSSE 15.9 19.0----29.96- 74.7-----
2024-05-22 05:18 pm SE 14.0 21.0----29.96- 75.2-----
2024-05-22 05:12 pm SE 15.0 19.0----29.96- 75.0-----
2024-05-22 05:06 pmSSE 15.0 18.1----29.96- 75.4-----
2024-05-22 05:00 pmSSE 14.0 20.0----29.97- 74.5-----
2024-05-22 04:54 pm SE 14.0 20.0----29.97- 74.8-----
2024-05-22 04:48 pm SE 14.0 21.0----29.97- 74.3-----
2024-05-22 04:42 pm SE 15.9 21.0----29.97- 74.3-----
2024-05-22 04:36 pm SE 15.0 19.0----29.97- 74.1-----
2024-05-22 04:30 pm SE 15.9 20.0----29.97- 74.3-----
2024-05-22 04:24 pm SE 14.0 18.1----29.97- 74.7-----
2024-05-22 04:18 pm SE 15.9 19.0----29.98- 74.5-----
2024-05-22 04:12 pm SE 15.0 19.0----29.98- 75.4-----
2024-05-22 04:06 pm SE 13.0 19.0----29.98- 75.7-----
2024-05-22 04:00 pm SE 13.0 18.1----29.98-0.04 75.7-----
2024-05-22 03:54 pm SE 14.0 17.1----29.98- 75.4-----
2024-05-22 03:48 pm SE 12.0 19.0----29.98- 75.6-----
2024-05-22 03:42 pm SE 13.0 20.0----29.98- 75.4-----
2024-05-22 03:36 pm SE 12.0 17.1----29.98- 75.6-----
2024-05-22 03:30 pm SE 15.0 19.0----29.99- 75.2-----
2024-05-22 03:24 pm SE 14.0 18.1----29.99- 74.8-----
2024-05-22 03:18 pm SE 15.0 19.0----29.99- 74.8-----
2024-05-22 03:12 pm SE 14.0 19.0----29.99- 75.2-----
2024-05-22 03:06 pm SE 14.0 19.0----29.99- 75.0-----
2024-05-22 03:00 pm SE 14.0 20.0----30.00-0.04 75.4-----
2024-05-22 02:54 pm SE 14.0 18.1----30.00- 75.0-----
2024-05-22 02:48 pm SE 14.0 19.0----30.00- 75.2-----
2024-05-22 02:42 pm SE 13.0 18.1----30.00- 75.2-----
2024-05-22 02:36 pm SE 13.0 17.1----30.00- 75.4-----
2024-05-22 02:30 pmSSE 12.0 18.1----30.01- 75.2-----
2024-05-22 02:24 pm SE 13.0 18.1----30.01- 75.4-----
2024-05-22 02:18 pm SE 12.0 15.9------------
2024-05-22 02:12 pm SE 13.0 17.1------------
2024-05-22 02:06 pm SE 13.0 17.1------------
2024-05-22 02:00 pm SE 13.0 15.9------------
2024-05-22 01:54 pm SE 13.0 18.1------------
2024-05-22 01:48 pm SE 14.0 18.1------------
2024-05-22 01:42 pm SE 14.0 17.1------------
2024-05-22 01:36 pm SE 11.1 15.9------------
2024-05-22 01:30 pm SE 14.0 18.1----30.02-------
2024-05-22 01:24 pm SE 13.0 15.9----30.02-------
2024-05-22 01:18 pm SE 14.0 15.9------------
2024-05-22 01:12 pm SE 14.0 17.1------------
2024-05-22 01:06 pm SE 13.0 17.1------------
2024-05-22 01:00 pm SE 12.0 15.0----30.02-0.04------
2024-05-22 12:54 pm SE 11.1 15.0----30.02-------
2024-05-22 12:48 pm SE 9.9 12.0------------
2024-05-22 12:42 pm SE 8.0 12.0------------
2024-05-22 12:36 pm SE 11.1 13.0------------
2024-05-22 12:30 pm SE 8.0 13.0------------
2024-05-22 12:24 pm SE 8.0 12.0------------
2024-05-22 12:18 pm SE 8.0 14.0------ 77.0-----
2024-05-22 12:12 pm SE 9.9 12.0------ 77.5-----
2024-05-22 12:06 pm S 2.9 8.0------ 79.5-----
2024-05-22 12:00 pmESE 8.0 11.1----30.04-0.03 77.0-----
2024-05-22 11:54 am SE 6.0 8.9----30.04- 77.2-----
2024-05-22 11:48 amENE 6.0 9.9----30.04- 73.9-----
2024-05-22 11:42 am E 5.1 8.0----30.04- 73.4-----
2024-05-22 11:36 am E 7.0 8.9----30.04- 73.9-----
2024-05-22 11:30 am E 5.1 7.0----30.04- 73.8-----
2024-05-22 11:24 am E 5.1 6.0----30.04- 73.6-----
2024-05-22 11:18 am E 6.0 7.0----30.04- 72.9-----
2024-05-22 11:12 am E 5.1 6.0----30.04- 71.6-----
2024-05-22 11:06 am E 5.1 6.0----30.05- 72.3-----
2024-05-22 11:00 am E 6.0 7.0----30.05-0.01 72.7-----
2024-05-22 10:54 amENE 5.1 6.0----30.06- 75.4-----
2024-05-22 10:48 amWSW 6.0 8.0----30.06-------
2024-05-22 10:42 amSSW 5.1 7.0----30.06-------
2024-05-22 10:36 am SW 6.0 8.0----30.06-------
2024-05-22 10:30 am SW 5.1 7.0------------
2024-05-22 10:24 amSSW 6.0 9.9------------
2024-05-22 10:18 am SW 6.0 8.0------------
2024-05-22 10:12 am SW 6.0 8.9------------
2024-05-22 10:06 am SW 6.0 8.0------------
2024-05-22 10:00 am SW 5.1 9.9----30.06+0.01 74.5-----
2024-05-22 09:54 am SW 8.0 9.9----30.06- 74.3-----
2024-05-22 09:48 am SW 6.0 8.9----30.06-------
2024-05-22 09:42 am SW 6.0 8.9----30.06-------
2024-05-22 09:36 amSSW 6.0 8.9----30.06-------
2024-05-22 09:30 am SW 6.0 8.0------------
2024-05-22 09:24 am SW 4.1 7.0------------
2024-05-22 09:18 am SW 5.1 8.9----30.07-------
2024-05-22 09:12 amSSW 5.1 8.9----30.07-------
2024-05-22 09:06 amSSW 6.0 8.9----30.07-------
2024-05-22 09:00 amSSW 5.1 8.9----30.07+0.03 71.4-----
2024-05-22 08:54 am S 5.1 8.9----30.07- 71.1-----
2024-05-22 08:48 amSSW 4.1 6.0----30.08- 70.9-----
2024-05-22 08:42 am SW 2.9 6.0----30.08- 70.5-----
2024-05-22 08:36 amSSW 4.1 8.0----30.08- 70.0-----
2024-05-22 08:30 am S 5.1 7.0----30.07- 69.4-----
2024-05-22 08:24 amSSW 4.1 6.0----30.07- 69.3-----
2024-05-22 08:18 amSSW 2.9 5.1----30.07- 69.1-----
2024-05-22 08:12 amSSW 2.9 6.0----30.07- 68.5-----
2024-05-22 08:06 amSSW 2.9 6.0----30.07- 68.2-----
2024-05-22 08:00 am SW 4.1 7.0----30.07+0.04 67.6-----
2024-05-22 07:54 amSSW 4.1 7.0----30.06- 67.5-----
2024-05-22 07:48 am SW 4.1 7.0----30.06- 66.9-----
2024-05-22 07:42 am SW 4.1 7.0----30.06- 66.6-----
2024-05-22 07:36 am SW 5.1 8.0----30.06- 66.2-----
2024-05-22 07:30 am SW 5.1 8.0----30.05- 66.0-----
2024-05-22 07:24 amSSW 5.1 8.0----30.05- 65.5-----
2024-05-22 07:18 amSSW 5.1 7.0----30.05- 65.1-----
2024-05-22 07:12 amSSW 5.1 7.0----30.05- 64.8-----
2024-05-22 07:06 amSSW 6.0 8.9----30.04- 64.4-----
2024-05-22 07:00 amSSW 5.1 7.0----30.05+0.02 64.0-----
2024-05-22 06:54 amSSW 5.1 7.0----30.05- 63.7-----
2024-05-22 06:48 amSSW 5.1 6.0----30.05- 63.5-----
2024-05-22 06:42 amSSW 4.1 6.0----30.04- 63.3-----
2024-05-22 06:36 amSSW 4.1 5.1----30.04- 63.1-----
2024-05-22 06:30 amSSW 2.9 5.1----30.05- 63.0-----
2024-05-22 06:24 amSSW 4.1 6.0----30.04- 62.8-----
2024-05-22 06:18 amSSW 4.1 6.0----30.04- 62.8-----
2024-05-22 06:12 amSSW 4.1 7.0----30.04- 62.6-----
2024-05-22 06:06 am SW 4.1 6.0----30.04- 62.6-----
2024-05-22 06:00 am SW 4.1 6.0----30.04+0.02 62.4-----
2024-05-22 05:54 amSSW 4.1 5.1----30.04- 62.4-----
2024-05-22 05:48 amSSW 2.9 5.1----30.03- 62.4-----
2024-05-22 05:42 am SW 4.1 6.0----30.03- 62.4-----
2024-05-22 05:36 am SW 4.1 5.1----30.03- 62.6-----
2024-05-22 05:30 amSSW 2.9 6.0----30.03- 62.6-----
2024-05-22 05:24 amSSW 4.1 6.0----30.03- 62.8-----
2024-05-22 05:18 amSSW 5.1 6.0----30.03- 62.8-----
2024-05-22 05:12 amSSW 4.1 6.0----30.03- 62.8-----
2024-05-22 05:06 amSSW 4.1 6.0----30.03- 62.8-----
2024-05-22 05:00 am SW 4.1 5.1----30.03+0.01 62.8-----
2024-05-22 04:54 amWSW 4.1 7.0----30.03- 62.6-----
2024-05-22 04:48 am SW 5.1 7.0----30.03- 62.6-----
2024-05-22 04:42 am SW 4.1 7.0----30.03- 62.4-----
2024-05-22 04:36 amSSW 4.1 6.0----30.03- 62.4-----
2024-05-22 04:30 amSSW 5.1 6.0----30.03- 62.4-----
2024-05-22 04:24 amSSW 5.1 6.0----30.04- 62.2-----
2024-05-22 04:18 amSSW 4.1 5.1----30.04- 62.2-----
2024-05-22 04:12 amSSW 2.9 6.0----30.03- 62.2-----
2024-05-22 04:06 amSSW 4.1 8.0----30.03- 62.2-----
2024-05-22 04:00 am S 5.1 6.0----30.03+0.00 62.2-----
2024-05-22 03:54 am S 5.1 7.0----30.03- 62.2-----
2024-05-22 03:48 amSSW 4.1 7.0----30.03- 62.2-----
2024-05-22 03:42 amSSW 2.9 6.0----30.03- 62.2-----
2024-05-22 03:36 am S 4.1 6.0----30.03- 62.4-----
2024-05-22 03:30 amSSW 4.1 7.0----30.03- 62.4-----
2024-05-22 03:24 am S 4.1 7.0----30.03- 62.4-----
2024-05-22 03:18 am S 4.1 6.0----30.03- 62.4-----
2024-05-22 03:12 am S 5.1 8.0----30.03- 62.4-----
2024-05-22 03:06 amSSW 6.0 9.9----30.03- 62.4-----
2024-05-22 03:00 amSSW 6.0 9.9----30.02-0.01 62.4-----
2024-05-22 02:54 amSSW 7.0 8.9----30.03- 62.6-----
2024-05-22 02:48 am S 7.0 9.9----30.03- 62.6-----
2024-05-22 02:42 am S 8.0 9.9----30.03- 62.6-----
2024-05-22 02:36 am S 8.0 11.1----30.02- 62.4-----
2024-05-22 02:30 am S 8.0 9.9----30.02- 62.4-----
2024-05-22 02:24 am S 8.0 11.1----30.02- 62.4-----
2024-05-22 02:18 am S 8.9 11.1----30.02- 62.4-----
2024-05-22 02:12 am S 8.0 9.9----30.02- 62.4-----
2024-05-22 02:06 am S 8.0 9.9----30.02- 62.2-----
2024-05-22 02:00 am S 8.0 9.9----30.02-0.01 62.2-----
2024-05-22 01:54 am S 8.0 9.9----30.02- 62.1-----
2024-05-22 01:48 am S 8.0 9.9----30.02- 61.9-----
2024-05-22 01:42 am S 8.0 8.9----30.01- 61.7-----
2024-05-22 01:36 am S 8.0 9.9----30.02- 61.7-----
2024-05-22 01:30 am S 8.0 8.9----30.02- 61.7-----
2024-05-22 01:24 am S 6.0 8.0----30.02- 61.7-----
2024-05-22 01:18 am S 7.0 9.9----30.02- 61.7-----
2024-05-22 01:12 am S 8.0 9.9----30.02- 61.7-----
2024-05-22 01:06 am S 8.0 9.9----30.02- 61.7-----
2024-05-22 01:00 am S 8.9 12.0----30.02-0.01 61.9-----
2024-05-22 12:54 am S 9.9 11.1----30.02- 61.7-----
2024-05-22 12:48 am S 7.0 8.0----30.02- 61.3-----
2024-05-22 12:42 am S 7.0 9.9----30.03- 61.5-----
2024-05-22 12:36 am S 8.0 9.9----30.03- 61.5-----
2024-05-22 12:30 am S 8.0 9.9----30.03- 61.5-----
2024-05-22 12:24 am S 7.0 8.9----30.03- 61.5-----
2024-05-22 12:18 am S 6.0 8.0----30.03- 61.7-----
2024-05-22 12:12 am S 5.1 7.0----30.03- 61.9-----
2024-05-22 12:06 amSSE 6.0 8.0----30.03- 62.1-----
2024-05-22 12:00 amSSE 7.0 8.9----30.03+0.00 62.1-----
2024-05-21 11:54 pmSSE 7.0 8.9----30.03- 62.2-----
2024-05-21 11:48 pmSSE 6.0 8.9----30.03- 62.2-----
2024-05-21 11:42 pmSSE 6.0 8.9----30.03- 62.2-----
2024-05-21 11:36 pmSSE 7.0 8.9----30.03- 62.2-----
2024-05-21 11:30 pmSSE 6.0 8.9----30.03- 62.2-----
2024-05-21 11:24 pmSSE 6.0 8.9----30.03- 62.1-----
2024-05-21 11:18 pmSSE 7.0 8.9----30.03- 62.1-----
2024-05-21 11:12 pmSSE 8.0 9.9----30.03- 62.2-----
2024-05-21 11:06 pmSSE 8.0 9.9----30.03- 62.2-----
2024-05-21 11:00 pmSSE 8.0 11.1----30.03+0.00 62.2-----
2024-05-21 10:54 pmSSE 8.9 11.1----30.03- 62.2-----
2024-05-21 10:48 pmSSE 8.9 11.1----30.03- 62.2-----
2024-05-21 10:42 pmSSE 8.0 11.1----30.03- 62.2-----
2024-05-21 10:36 pmSSE 8.9 11.1----30.03- 62.4-----
2024-05-21 10:30 pmSSE 8.9 11.1----30.03- 62.4-----
2024-05-21 10:24 pmSSE 8.0 12.0----30.03- 62.4-----
2024-05-21 10:18 pmSSE 8.0 11.1----30.03- 62.6-----
2024-05-21 10:12 pmSSE 8.0 11.1----30.03- 62.6-----
2024-05-21 10:06 pmSSE 8.0 11.1----30.03- 62.6-----
2024-05-21 10:00 pm SE 8.0 9.9----30.03+0.00 62.6-----
2024-05-21 09:54 pm SE 6.0 9.9----30.03- 62.6-----
2024-05-21 09:48 pm SE 7.0 8.9----30.03- 62.8-----
2024-05-21 09:42 pm SE 7.0 8.9----30.03- 62.8-----
2024-05-21 09:36 pm SE 8.0 9.9----30.03- 62.8-----
2024-05-21 09:30 pm SE 8.0 9.9----30.03- 62.8-----
2024-05-21 09:24 pm SE 7.0 8.9----30.03- 62.8-----
2024-05-21 09:18 pm SE 7.0 8.9----30.03- 62.8-----
2024-05-21 09:12 pm SE 5.1 7.0----30.03- 62.8-----
2024-05-21 09:06 pm SE 5.1 7.0----30.03- 62.8-----
2024-05-21 09:00 pm SE 5.1 8.0----30.03+0.00 62.8-----
2024-05-21 08:54 pm SE 6.0 8.0----30.03- 62.8-----
2024-05-21 08:48 pm SE 6.0 8.0----30.03- 62.8-----
2024-05-21 08:42 pm SE 6.0 8.0----30.03- 62.8-----
2024-05-21 08:36 pm SE 7.0 8.9----30.03- 62.8-----
2024-05-21 08:30 pm SE 7.0 9.9----30.03- 62.8-----
2024-05-21 08:24 pm SE 8.0 9.9----30.03- 62.8-----
2024-05-21 08:18 pm SE 7.0 11.1----30.03- 62.8-----
2024-05-21 08:12 pm SE 8.9 11.1----30.03- 62.8-----
2024-05-21 08:06 pm SE 8.0 11.1----30.03- 63.0-----
2024-05-21 08:00 pm SE 8.0 9.9----30.03+0.01 63.0-----
2024-05-21 07:54 pm SE 8.0 11.1----30.03- 63.0-----
2024-05-21 07:48 pm SE 8.0 11.1----30.03- 63.1-----
2024-05-21 07:42 pm SE 8.9 11.1----30.03- 63.1-----
2024-05-21 07:36 pm SE 8.0 11.1----30.04- 63.3-----
2024-05-21 07:30 pm SE 8.0 9.9----30.04- 63.3-----
2024-05-21 07:24 pm SE 8.9 9.9----30.04- 63.3-----
2024-05-21 07:00 pmESE 8.0 9.9----30.03+0.02 63.7-----
2024-05-21 06:54 pmESE 7.0 11.1----30.03- 63.5-----
2024-05-21 06:48 pmESE 9.9 12.0----30.03- 63.3-----
2024-05-21 06:42 pm SE 8.0 9.9----30.03- 63.7-----
2024-05-21 06:36 pmESE 8.0 11.1----30.03- 63.7-----
2024-05-21 06:30 pmESE 8.0 9.9----30.03- 64.0-----
2024-05-21 06:24 pmESE 8.0 9.9----30.03- 63.9-----
2024-05-21 06:18 pmESE 8.0 9.9----30.03- 64.0-----
2024-05-21 06:12 pm SE 8.9 11.1----30.03- 63.5-----
2024-05-21 06:06 pm SE 7.0 11.1----30.02- 64.2-----
2024-05-21 06:00 pm SE 7.0 8.9----30.03-0.01 64.2-----
2024-05-21 05:54 pm SE 6.0 9.9----30.03- 64.6-----